SYR21G OMDB-OSDI

Flight info

Callsign SYR21G
Flight time 1h 12m
Altitude 36000
Route RIDAP M557 TUMAK L602 GADSI M703 ANBAR DCT RAPLU G202 TAN
Aircraft A20N/M-SDE2E3FGHIRWXY/LB1

Departure

Time 2026-04-26 18:19
Airport Dubai International Airport (OMDB)

Arrival

Time 2026-04-26 19:31
Airport Damascus International Airport (OSDI)
Time Latitude Longitude Altitude Speed Heading
2026-04-26 17:47 25.25825 55.34561 20 ft 0 kts 211°
2026-04-26 17:59 25.25838 55.34570 21 ft 2 kts 212°
2026-04-26 17:59 25.25852 55.34579 21 ft 2 kts 211°
2026-04-26 18:00 25.25866 55.34589 22 ft 2 kts 212°
2026-04-26 18:00 25.25880 55.34599 21 ft 2 kts 211°
2026-04-26 18:00 25.25896 55.34604 21 ft 2 kts 174°
2026-04-26 18:00 25.25912 55.34601 20 ft 2 kts 165°
2026-04-26 18:01 25.25928 55.34595 20 ft 2 kts 153°
2026-04-26 18:01 25.25939 55.34587 21 ft 1 kts 133°
2026-04-26 18:01 25.25941 55.34585 21 ft 0 kts 127°
2026-04-26 18:11 25.25939 55.34589 20 ft 3 kts 127°
2026-04-26 18:11 25.25902 55.34647 20 ft 13 kts 124°
2026-04-26 18:12 25.25850 55.34744 21 ft 16 kts 120°
2026-04-26 18:12 25.25791 55.34859 21 ft 19 kts 120°
2026-04-26 18:12 25.25715 55.34987 21 ft 21 kts 122°
2026-04-26 18:12 25.25641 55.35132 23 ft 23 kts 120°
2026-04-26 18:13 25.25553 55.35290 21 ft 25 kts 123°
2026-04-26 18:13 25.25458 55.35461 21 ft 27 kts 121°
2026-04-26 18:13 25.25359 55.35642 22 ft 29 kts 121°
2026-04-26 18:13 25.25286 55.35771 21 ft 30 kts 122°
2026-04-26 18:14 25.25140 55.36037 21 ft 32 kts 122°
2026-04-26 18:14 25.25022 55.36248 24 ft 33 kts 120°
2026-04-26 18:14 25.24901 55.36467 22 ft 34 kts 123°
2026-04-26 18:14 25.24791 55.36698 25 ft 34 kts 105°
2026-04-26 18:15 25.24706 55.36942 26 ft 34 kts 122°
2026-04-26 18:15 25.24585 55.37155 30 ft 33 kts 118°
2026-04-26 18:15 25.24470 55.37365 33 ft 31 kts 121°
2026-04-26 18:15 25.24355 55.37570 39 ft 31 kts 121°
2026-04-26 18:16 25.24273 55.37750 42 ft 18 kts 76°
2026-04-26 18:16 25.24478 55.37925 43 ft 21 kts 35°
2026-04-26 18:16 25.24600 55.38019 43 ft 22 kts 34°
2026-04-26 18:17 25.24738 55.38100 40 ft 22 kts 359°
2026-04-26 18:17 25.24793 55.38046 39 ft 9 kts 296°
2026-04-26 18:17 25.24801 55.38026 41 ft 0 kts 296°
2026-04-26 18:18 25.24809 55.38018 41 ft 6 kts 316°
2026-04-26 18:18 25.24846 55.37967 40 ft 11 kts 302°
2026-04-26 18:18 25.24989 55.37705 34 ft 80 kts 302°
2026-04-26 18:18 25.25403 55.36941 25 ft 148 kts 300°
2026-04-26 18:19 25.25984 55.35836 316 ft 179 kts 300°
2026-04-26 18:19 25.26669 55.34552 786 ft 207 kts 301°
2026-04-26 18:19 25.27437 55.33175 1147 ft 236 kts 302°
2026-04-26 18:19 25.28373 55.31588 1817 ft 237 kts 303°
2026-04-26 18:20 25.29226 55.30093 2905 ft 223 kts 302°
2026-04-26 18:20 25.30050 55.28703 3958 ft 209 kts 305°
2026-04-26 18:20 25.30743 55.27618 4682 ft 207 kts 305°
2026-04-26 18:20 25.31279 55.26775 5123 ft 208 kts 305°
2026-04-26 18:21 25.32413 55.24987 5812 ft 212 kts 305°
2026-04-26 18:21 25.33265 55.23645 5886 ft 215 kts 305°
2026-04-26 18:21 25.34164 55.22230 6048 ft 233 kts 305°
2026-04-26 18:21 25.35088 55.20760 6778 ft 232 kts 301°
2026-04-26 18:22 25.35708 55.19141 7520 ft 233 kts 283°
2026-04-26 18:22 25.35832 55.17341 8167 ft 239 kts 269°
2026-04-26 18:22 25.35739 55.15428 8545 ft 258 kts 269°
2026-04-26 18:22 25.35653 55.13363 8899 ft 275 kts 269°
2026-04-26 18:23 25.35573 55.11267 9576 ft 279 kts 269°
2026-04-26 18:23 25.35494 55.09086 10219 ft 285 kts 269°
2026-04-26 18:23 25.35414 55.06804 10402 ft 308 kts 269°
2026-04-26 18:23 25.35328 55.04346 10595 ft 327 kts 269°
2026-04-26 18:24 25.35237 55.01813 11144 ft 332 kts 269°
2026-04-26 18:24 25.35143 54.99264 11775 ft 336 kts 268°
2026-04-26 18:24 25.35049 54.96676 12419 ft 339 kts 268°
2026-04-26 18:24 25.34952 54.94038 13056 ft 343 kts 269°
2026-04-26 18:25 25.35030 54.91403 13698 ft 346 kts 276°
2026-04-26 18:25 25.35450 54.88763 14246 ft 350 kts 283°
2026-04-26 18:25 25.36171 54.86168 14825 ft 353 kts 287°
2026-04-26 18:25 25.36920 54.83617 15401 ft 355 kts 286°
2026-04-26 18:26 25.37672 54.81002 15975 ft 358 kts 285°
2026-04-26 18:26 25.38426 54.78362 16536 ft 361 kts 285°
2026-04-26 18:26 25.39183 54.75708 17087 ft 363 kts 285°
2026-04-26 18:26 25.39950 54.73019 17645 ft 366 kts 285°
2026-04-26 18:27 25.40719 54.70325 18187 ft 369 kts 284°
2026-04-26 18:27 25.41489 54.67623 18687 ft 370 kts 284°
2026-04-26 18:27 25.42254 54.64939 19217 ft 371 kts 284°
2026-04-26 18:27 25.43030 54.62211 19744 ft 372 kts 284°
2026-04-26 18:28 25.43814 54.59478 20250 ft 373 kts 285°
2026-04-26 18:28 25.44624 54.56741 20758 ft 375 kts 285°
2026-04-26 18:28 25.45446 54.53992 21244 ft 377 kts 285°
2026-04-26 18:28 25.46270 54.51226 21748 ft 378 kts 285°
2026-04-26 18:29 25.47083 54.48486 22226 ft 380 kts 285°
2026-04-26 18:29 25.47905 54.45706 22723 ft 381 kts 285°
2026-04-26 18:29 25.48707 54.42988 23193 ft 383 kts 285°
2026-04-26 18:29 25.49540 54.40161 23637 ft 385 kts 285°
2026-04-26 18:30 25.50358 54.37379 24032 ft 386 kts 285°
2026-04-26 18:30 25.51196 54.34528 24440 ft 387 kts 285°
2026-04-26 18:30 25.52035 54.31674 24821 ft 389 kts 285°
2026-04-26 18:30 25.52873 54.28819 25196 ft 391 kts 285°
2026-04-26 18:31 25.53700 54.25998 25553 ft 392 kts 285°
2026-04-26 18:31 25.54543 54.23127 25915 ft 393 kts 285°
2026-04-26 18:31 25.55394 54.20224 26267 ft 395 kts 285°
2026-04-26 18:31 25.56248 54.17314 26611 ft 396 kts 285°
2026-04-26 18:32 25.57101 54.14402 26949 ft 398 kts 285°
2026-04-26 18:32 25.57955 54.11486 27271 ft 399 kts 285°
2026-04-26 18:32 25.58801 54.08595 27582 ft 401 kts 285°
2026-04-26 18:32 25.59661 54.05647 27898 ft 402 kts 285°
2026-04-26 18:33 25.60509 54.02693 28198 ft 404 kts 285°
2026-04-26 18:33 25.61356 53.99714 28504 ft 405 kts 285°
2026-04-26 18:33 25.62202 53.96732 28786 ft 406 kts 285°
2026-04-26 18:33 25.63054 53.93734 29069 ft 408 kts 285°
2026-04-26 18:34 25.63909 53.90724 29344 ft 409 kts 285°
2026-04-26 18:34 25.64756 53.87746 29616 ft 410 kts 285°
2026-04-26 18:34 25.65613 53.84730 29889 ft 412 kts 285°
2026-04-26 18:34 25.66475 53.81694 30133 ft 413 kts 285°
2026-04-26 18:35 25.67338 53.78653 30381 ft 413 kts 285°
2026-04-26 18:35 25.68205 53.75592 30632 ft 414 kts 285°
2026-04-26 18:35 25.69059 53.72576 30877 ft 415 kts 286°
2026-04-26 18:35 25.69923 53.69515 31171 ft 414 kts 286°
2026-04-26 18:36 25.70781 53.66463 31502 ft 413 kts 286°
2026-04-26 18:36 25.71632 53.63432 31840 ft 411 kts 286°
2026-04-26 18:36 25.72482 53.60400 32154 ft 409 kts 286°
2026-04-26 18:36 25.73327 53.57388 32468 ft 408 kts 286°
2026-04-26 18:37 25.74167 53.54390 32755 ft 406 kts 286°
2026-04-26 18:37 25.75063 53.51460 33018 ft 406 kts 292°
2026-04-26 18:37 25.76204 53.48592 33285 ft 405 kts 292°
2026-04-26 18:37 25.77338 53.45720 33558 ft 404 kts 292°
2026-04-26 18:38 25.78465 53.42873 33805 ft 403 kts 292°
2026-04-26 18:38 25.79590 53.40026 34023 ft 402 kts 292°
2026-04-26 18:38 25.80713 53.37185 34205 ft 401 kts 292°
2026-04-26 18:38 25.81815 53.34396 34380 ft 400 kts 292°
2026-04-26 18:39 25.82933 53.31565 34550 ft 400 kts 292°
2026-04-26 18:39 25.84050 53.28734 34720 ft 399 kts 291°
2026-04-26 18:39 25.85161 53.25917 34879 ft 398 kts 291°
2026-04-26 18:39 25.86269 53.23103 35063 ft 398 kts 291°
2026-04-26 18:40 25.87381 53.20279 35206 ft 397 kts 291°
2026-04-26 18:40 25.88487 53.17468 35368 ft 397 kts 291°
2026-04-26 18:40 25.89561 53.14737 35517 ft 396 kts 291°
2026-04-26 18:40 25.90677 53.11894 35681 ft 396 kts 291°
2026-04-26 18:41 25.91778 53.09091 35844 ft 395 kts 291°
2026-04-26 18:41 25.92878 53.06287 35902 ft 395 kts 291°
2026-04-26 18:41 26.47708 51.52539 35979 ft 0 kts 291°
2026-04-26 18:41 26.44752 51.60884 36159 ft 386 kts 290°
2026-04-26 18:42 26.46056 51.58305 35939 ft 390 kts 302°
2026-04-26 18:42 26.47958 51.56101 35925 ft 403 kts 315°
2026-04-26 18:42 26.50371 51.54378 35928 ft 416 kts 324°
2026-04-26 18:42 26.52759 51.52628 35929 ft 405 kts 312°
2026-04-26 18:43 26.56345 51.47968 35928 ft 395 kts 301°
2026-04-26 18:43 26.59723 51.43111 35928 ft 397 kts 303°
2026-04-26 18:44 27.54248 49.84760 36050 ft 393 kts 303°
2026-04-26 18:44 27.55915 49.82341 36057 ft 392 kts 307°
2026-04-26 18:44 27.58014 49.80340 35929 ft 399 kts 315°
2026-04-26 18:44 27.97555 49.46883 35968 ft 0 kts 323°
2026-04-26 18:45 28.31059 49.18435 36132 ft 392 kts 314°
2026-04-26 18:45 28.33245 49.16538 35919 ft 396 kts 313°
2026-04-26 18:45 28.37556 49.12585 35932 ft 401 kts 312°
2026-04-26 18:46 28.42072 49.08785 35925 ft 407 kts 317°
2026-04-26 18:46 28.46719 49.05231 35926 ft 407 kts 316°
2026-04-26 18:47 28.51409 49.01626 35922 ft 407 kts 316°
2026-04-26 18:47 28.56098 48.98021 35926 ft 407 kts 316°
2026-04-26 18:48 28.60793 48.94410 35920 ft 407 kts 316°
2026-04-26 18:48 28.65486 48.90797 35921 ft 407 kts 316°
2026-04-26 18:49 28.70138 48.87212 35915 ft 407 kts 316°
2026-04-26 18:49 28.74842 48.83583 35919 ft 407 kts 316°
2026-04-26 18:50 28.79520 48.79970 35922 ft 407 kts 316°
2026-04-26 18:50 28.84224 48.76352 35922 ft 408 kts 316°
2026-04-26 18:51 28.88904 48.72771 35922 ft 408 kts 316°
2026-04-26 18:51 28.93629 48.69149 35918 ft 409 kts 316°
2026-04-26 18:52 28.97556 48.66134 35927 ft 409 kts 316°
2026-04-26 18:52 29.02288 48.62497 35929 ft 410 kts 316°
2026-04-26 18:53 29.07790 48.58262 35925 ft 410 kts 316°
2026-04-26 18:53 29.11736 48.55222 35927 ft 410 kts 316°
2026-04-26 18:54 29.16470 48.51570 35931 ft 411 kts 316°
2026-04-26 18:54 29.21215 48.47906 35926 ft 411 kts 316°
2026-04-26 18:55 29.25935 48.44258 35925 ft 411 kts 316°
2026-04-26 18:55 29.30690 48.40578 35933 ft 412 kts 316°
2026-04-26 18:56 29.35452 48.36889 35934 ft 412 kts 316°
2026-04-26 18:56 29.40204 48.33204 35937 ft 413 kts 316°
2026-04-26 18:57 29.44187 48.30172 35937 ft 417 kts 319°
2026-04-26 18:57 29.50060 48.26318 35937 ft 419 kts 320°
2026-04-26 18:58 29.55126 48.22985 35936 ft 419 kts 320°
2026-04-26 18:58 29.60199 48.19642 35933 ft 419 kts 320°
2026-04-26 18:59 29.65265 48.16302 35933 ft 420 kts 320°
2026-04-26 18:59 29.70313 48.12969 35932 ft 420 kts 320°
2026-04-26 19:00 29.75397 48.09608 35932 ft 421 kts 320°
2026-04-26 19:00 29.80451 48.06263 35928 ft 421 kts 320°
2026-04-26 19:01 29.85548 48.02887 35929 ft 421 kts 320°
2026-04-26 19:01 29.90633 47.99514 35932 ft 422 kts 320°
2026-04-26 19:02 29.95702 47.96148 35931 ft 422 kts 320°
2026-04-26 19:02 29.99847 47.93190 35930 ft 415 kts 315°
2026-04-26 19:03 30.04864 47.88196 35925 ft 404 kts 305°
2026-04-26 19:03 30.08555 47.83345 35921 ft 401 kts 303°
2026-04-26 19:04 30.12199 47.78505 35922 ft 402 kts 303°
2026-04-26 19:04 30.15709 47.73508 35922 ft 393 kts 293°
2026-04-26 19:05 30.19181 47.65026 35913 ft 388 kts 289°
2026-04-26 19:06 30.21489 47.59410 35918 ft 389 kts 290°
2026-04-26 19:06 30.23805 47.53959 35921 ft 0 kts 290°
2026-04-26 19:06 30.53018 45.11041 35972 ft 0 kts 293°
2026-04-26 19:07 31.95025 44.34743 36141 ft 32000 kts 291°
2026-04-26 19:07 33.19978 40.53705 36499 ft 32000 kts 291°
2026-04-26 19:07 33.34928 40.07166 36684 ft 384 kts 277°
2026-04-26 19:07 33.35372 40.04080 36488 ft 383 kts 273°
2026-04-26 19:08 33.35728 40.00959 36127 ft 387 kts 272°
2026-04-26 19:08 33.36085 39.97774 35928 ft 387 kts 272°
2026-04-26 19:08 33.36446 39.94584 35639 ft 386 kts 272°
2026-04-26 19:08 33.36810 39.91395 35046 ft 387 kts 273°
2026-04-26 19:09 33.37179 39.88175 34256 ft 392 kts 273°
2026-04-26 19:09 33.37552 39.84908 33314 ft 398 kts 273°
2026-04-26 19:09 33.37926 39.81653 32414 ft 402 kts 273°
2026-04-26 19:09 33.38307 39.78325 31521 ft 405 kts 273°
2026-04-26 19:10 33.38692 39.74966 30663 ft 409 kts 273°
2026-04-26 19:10 33.39077 39.71593 29886 ft 410 kts 273°
2026-04-26 19:10 33.39368 39.69043 29377 ft 0 kts 281°
2026-04-26 19:10 33.46821 39.19945 29403 ft 0 kts 278°
2026-04-26 19:11 33.48076 38.91754 29412 ft 0 kts 246°
2026-04-26 19:11 33.46525 38.87493 29416 ft 0 kts 246°
2026-04-26 19:11 33.46191 38.81920 29422 ft 0 kts 58°
2026-04-26 19:11 33.52493 38.72009 29430 ft 0 kts 307°
2026-04-26 19:12 33.50695 38.74832 29428 ft 0 kts 261°
2026-04-26 19:12 33.48056 38.66335 29431 ft 0 kts 270°
2026-04-26 19:12 33.48521 38.65497 29325 ft 403 kts 297°
2026-04-26 19:12 33.49772 38.62585 28951 ft 385 kts 283°
2026-04-26 19:13 33.50352 38.59494 28168 ft 380 kts 270°
2026-04-26 19:13 33.50237 38.56322 27107 ft 382 kts 256°
2026-04-26 19:13 33.49400 38.53309 26405 ft 378 kts 244°
2026-04-26 19:13 33.48280 38.50473 25839 ft 375 kts 246°
2026-04-26 19:14 33.47429 38.47571 25263 ft 373 kts 253°
2026-04-26 19:14 33.46899 38.44531 24684 ft 372 kts 258°
2026-04-26 19:14 33.46601 38.41456 24201 ft 369 kts 262°
2026-04-26 19:14 33.46478 38.39439 24059 ft 365 kts 263°
2026-04-26 19:15 33.46289 38.35337 23970 ft 372 kts 263°
2026-04-26 19:15 33.46160 38.32240 23967 ft 372 kts 264°
2026-04-26 19:15 33.46030 38.29143 23965 ft 372 kts 263°
2026-04-26 19:15 33.45896 38.26077 23967 ft 372 kts 263°
2026-04-26 19:16 33.45758 38.22983 23966 ft 372 kts 263°
2026-04-26 19:16 33.45618 38.19922 23963 ft 372 kts 263°
2026-04-26 19:16 33.45476 38.16836 23961 ft 372 kts 263°
2026-04-26 19:16 33.45333 38.13732 23962 ft 372 kts 263°
2026-04-26 19:17 33.45189 38.10632 23959 ft 373 kts 263°
2026-04-26 19:17 33.45043 38.07529 23959 ft 373 kts 263°
2026-04-26 19:17 33.44905 38.04612 23958 ft 0 kts 263°
2026-04-26 19:17 33.43234 37.84857 23952 ft 0 kts 271°
2026-04-26 19:18 33.43454 37.75755 23953 ft 0 kts 263°
2026-04-26 19:18 33.43378 37.72116 23955 ft 0 kts 280°
2026-04-26 19:18 33.43324 37.71369 23997 ft 371 kts 262°
2026-04-26 19:18 33.43154 37.68351 24046 ft 365 kts 262°
2026-04-26 19:19 33.42989 37.65303 23806 ft 369 kts 262°
2026-04-26 19:19 33.42822 37.62208 23593 ft 375 kts 263°
2026-04-26 19:19 33.42663 37.59133 23324 ft 373 kts 263°
2026-04-26 19:19 33.42506 37.56038 23050 ft 370 kts 263°
2026-04-26 19:20 33.42349 37.52992 22785 ft 370 kts 263°
2026-04-26 19:20 33.42242 37.50917 22606 ft 369 kts 263°
2026-04-26 19:20 33.42031 37.46855 22252 ft 368 kts 263°
2026-04-26 19:20 33.41872 37.43798 21988 ft 367 kts 263°
2026-04-26 19:21 33.41712 37.40758 21729 ft 365 kts 262°
2026-04-26 19:21 33.41552 37.37725 21465 ft 365 kts 262°
2026-04-26 19:21 33.41393 37.34732 21215 ft 363 kts 262°
2026-04-26 19:21 33.41232 37.31717 20960 ft 362 kts 262°
2026-04-26 19:22 33.41104 37.28702 20621 ft 365 kts 266°
2026-04-26 19:22 33.41408 37.25674 19886 ft 376 kts 276°
2026-04-26 19:22 33.41923 37.22557 18930 ft 385 kts 276°
2026-04-26 19:22 33.42477 37.19412 18227 ft 386 kts 277°
2026-04-26 19:23 33.43044 37.16285 17558 ft 382 kts 277°
2026-04-26 19:23 33.43604 37.13230 16912 ft 378 kts 277°
2026-04-26 19:23 33.44165 37.10164 16259 ft 375 kts 277°
2026-04-26 19:23 33.44719 37.07125 15618 ft 372 kts 277°
2026-04-26 19:24 33.45269 37.04099 15000 ft 369 kts 277°
2026-04-26 19:24 33.45810 37.01110 14393 ft 366 kts 277°
2026-04-26 19:24 33.46881 36.95181 13145 ft 361 kts 277°
2026-04-26 19:25 33.47402 36.92280 12483 ft 360 kts 277°
2026-04-26 19:25 33.47580 36.91290 12258 ft 360 kts 278°
2026-04-26 19:25 33.48380 36.86822 11307 ft 357 kts 278°
2026-04-26 19:25 33.48886 36.84001 10944 ft 349 kts 278°
2026-04-26 19:26 33.49392 36.81192 10646 ft 339 kts 278°
2026-04-26 19:26 33.49881 36.78478 10511 ft 325 kts 278°
2026-04-26 19:26 33.50347 36.75883 10389 ft 312 kts 278°
2026-04-26 19:26 33.50793 36.73396 10283 ft 298 kts 278°
2026-04-26 19:27 33.51220 36.71010 10125 ft 288 kts 278°
2026-04-26 19:27 33.51451 36.69709 7631 ft 0 kts 278°
2026-04-26 19:27 33.51612 36.68247 5454 ft 278 kts 277°
2026-04-26 19:27 33.51871 36.66014 5394 ft 264 kts 269°
2026-04-26 19:28 33.51485 36.63942 5292 ft 249 kts 238°
2026-04-26 19:28 33.50456 36.62336 5121 ft 240 kts 225°
2026-04-26 19:28 33.49614 36.61318 4359 ft 225 kts 223°
2026-04-26 19:28 33.48994 36.60570 3421 ft 204 kts 224°
2026-04-26 19:29 33.48128 36.59369 3479 ft 183 kts 228°
2026-04-26 19:29 33.47306 36.58245 3188 ft 175 kts 226°
2026-04-26 19:29 33.46521 36.57182 2945 ft 163 kts 227°
2026-04-26 19:29 33.45812 36.56224 2717 ft 150 kts 228°
2026-04-26 19:30 33.45226 36.55432 2528 ft 139 kts 229°
2026-04-26 19:30 33.44615 36.54607 2333 ft 129 kts 229°
2026-04-26 19:30 33.44037 36.53827 2114 ft 123 kts 229°
2026-04-26 19:30 33.43629 36.53296 2106 ft 133 kts 229°
2026-04-26 19:31 33.42877 36.52254 2004 ft 103 kts 227°
2026-04-26 19:31 33.42505 36.51755 2003 ft 61 kts 228°
2026-04-26 19:31 33.42274 36.51525 2002 ft 37 kts 204°
2026-04-26 19:31 33.42040 36.51413 2001 ft 36 kts 217°
2026-04-26 19:32 33.41883 36.51337 2000 ft 13 kts 145°
2026-04-26 19:32 33.41822 36.51412 2000 ft 13 kts 143°
2026-04-26 19:32 33.41749 36.51492 2000 ft 15 kts 136°
2026-04-26 19:32 33.41657 36.51561 2000 ft 14 kts 184°
2026-04-26 19:33 33.41626 36.51487 2000 ft 10 kts 291°
2026-04-26 19:33 33.41624 36.51413 1999 ft 9 kts 215°
2026-04-26 19:33 33.41555 36.51401 2000 ft 11 kts 183°
2026-04-26 19:33 33.41470 36.51395 1998 ft 13 kts 183°
2026-04-26 19:34 33.41370 36.51394 2000 ft 15 kts 169°
2026-04-26 19:34 33.41295 36.51463 2000 ft 8 kts 141°
2026-04-26 19:34 33.41251 36.51450 2000 ft 7 kts 216°
2026-04-26 19:34 33.41221 36.51411 1999 ft 0 kts 227°
2026-04-26 19:35 33.41224 36.51415 1999 ft 0 kts 227°